Tiempo atmosférico en la estación meteorológica de Puerto de Pajares, Asturias (1480 m.)



Fecha
DESCASC
Temp. máxima en grados centígrados (hora)
DESCASC
Temp. mínima en grados centígrados (hora)
DESCASC
Temp. media en grados centígrados
DESCASC
Racha de viento máxima en m/sg (hora)
DESCASC
Velocidad máxima media en intervalos de 10 minutos(hora)
DESCASC
Precipitaciones diarias en mm
DESCASC
Precipitaciones de 00:00 a 06:00 en mm
DESCASC
Precipitaciones de 06:00 a 12:00 en mm
DESCASC
Precipitaciones de 12:00 a 18:00 en mm
DESCASC
Precipitaciones de 18:00 a 24:00 en mm
DESCASC

Gráficas

Temp. máximas Temp. mínimas Temp. medias Precipitaciones Rachas de viento máximas Velocidades máximas media en intervalos de 10 minutos

Datos horarios

Fecha y hora oficial Temperatura (ºC) Velocidad del viento (km/h) Dirección del viento Racha (km/h) Dirección de racha Precipitación (mm) Presión (hPa) Tendencia (hPa) Humedad (%)
2020-01-18 23:00:00 -0.1 9 Noroeste 29 Noroeste 0 -- -- 91
2020-01-18 22:00:00 -0.1 13 Noroeste 25 Noroeste 0 -- -- 91
2020-01-18 21:00:00 -0.2 5 Noroeste 16 Noroeste 0 -- -- 90
2020-01-18 20:00:00 -0.2 8 Noroeste 23 Noroeste 0.3 -- -- 90
2020-01-18 19:00:00 0.2 14 Noroeste 26 Noroeste 0 -- -- 86
2020-01-18 18:00:00 1.9 5 Noroeste 41 Oeste 0 -- -- 75
2020-01-18 17:00:00 2.4 13 Noroeste 52 Noroeste 2.9 -- -- 63
2020-01-18 16:00:00 2.3 7 Norte 35 Sudoeste 2.8 -- -- 83
2020-01-18 15:00:00 4.1 18 Sur 41 Sudoeste 0 -- -- 74
2020-01-18 14:00:00 3.6 26 Sudoeste 54 Sur 0 -- -- 83
2020-01-18 13:00:00 1.2 41 Sur 65 Sur 0.1 -- -- 88
2020-01-18 12:00:00 0.4 44 Sur 66 Sur 0 -- -- 88
2020-01-18 11:00:00 0.5 37 Sur 59 Sur 0 -- -- 87
2020-01-18 10:00:00 0.1 36 Sur 68 Sur 0 -- -- 86
2020-01-18 09:00:00 -0.5 23 Sur 54 Sudeste 0 -- -- 86
2020-01-18 08:00:00 0 23 Sur 53 Sur 0 -- -- 80
2020-01-18 07:00:00 0.3 28 Sur 51 Sur 0 -- -- 74
2020-01-18 06:00:00 0 36 Sur 59 Sur 0 -- -- 73
2020-01-18 05:00:00 0.1 34 Sur 55 Sur 0 -- -- 70
2020-01-18 04:00:00 -0.1 34 Sur 55 Sur 0 -- -- 64
2020-01-18 03:00:00 0 19 Sur 36 Sur 0 -- -- 62
2020-01-18 02:00:00 0.4 17 Sur 35 Sur 0 -- -- 59
2020-01-18 01:00:00 0.3 20 Sur 30 Sur 0 -- -- 60
2020-01-18 00:00:00 0.9 22 Sur 34 Sur 0 -- -- 58
2020-01-17 23:00:00 0.4 20 Sur 33 Sur 0 -- -- 54
2020-01-17 22:00:00 0.6 19 Sur 32 Sur 0 -- -- 54
2020-01-17 21:00:00 0.2 20 Sur 30 Sur 0 -- -- 59
2020-01-17 20:00:00 0.1 18 Sur 27 Sur 0 -- -- 59
2020-01-17 19:00:00 0 15 Sur 22 Sur 0 -- -- 59
2020-01-17 18:00:00 0.1 5 Sur 9 Sudoeste 0 -- -- 59
2020-01-17 17:00:00 1.2 0 Calma 12 Sudoeste 0 -- -- 53
2020-01-17 16:00:00 1.6 2 Sudoeste 9 Sur 0 -- -- 50
2020-01-17 15:00:00 2.7 4 Oeste 13 Sur 0 -- -- 44
2020-01-17 14:00:00 2.3 4 Sudoeste 21 Sur 0 -- -- 49
2020-01-17 13:00:00 1.6 10 Sur 27 Sudoeste 0 -- -- 55
2020-01-17 12:00:00 1.2 0 Calma 32 Sur 0 -- -- 57
2020-01-17 11:00:00 0.2 5 Noroeste 26 Noroeste 0 -- -- 65
2020-01-17 10:00:00 0.1 6 Noroeste 24 Noroeste 0 -- -- 67
2020-01-17 09:00:00 0 0 Calma 24 Norte 0 -- -- 63
2020-01-17 08:00:00 0.5 5 Sur 33 Oeste 0 -- -- 61
2020-01-17 07:00:00 0.7 3 Sudeste 32 Sudeste 0 -- -- 64
2020-01-17 06:00:00 1.1 4 Noroeste 39 Sur 0 -- -- 57
2020-01-17 05:00:00 1.8 18 Sudoeste 37 Sudoeste 0 -- -- 66
2020-01-17 04:00:00 2 18 Sudoeste 37 Sudoeste 0 -- -- 74
2020-01-17 03:00:00 1.8 14 Sur 32 Sur 0 -- -- 78
2020-01-17 02:00:00 1.9 12 Sur 40 Sudoeste 0 -- -- 75
2020-01-17 01:00:00 2.4 19 Sudoeste 44 Sudoeste 0.1 -- -- 72
2020-01-17 00:00:00 2.5 16 Sur 45 Sudoeste 0.6 -- -- 78
2020-01-16 23:00:00 2.6 16 Sur 42 Sur 0.8 -- -- 78
2020-01-16 22:00:00 2.9 17 Sur 43 Sur 0.3 -- -- 86
2020-01-16 21:00:00 2.8 27 Sur 54 Sur 2.1 -- -- 84
2020-01-16 20:00:00 2.9 26 Sur 59 Sur 0.8 -- -- 83
2020-01-16 19:00:00 3.3 27 Sur 65 Sur 1.8 -- -- 82
2020-01-16 18:00:00 3.5 32 Sur 62 Sur 0.8 -- -- 80
2020-01-16 17:00:00 4 23 Sur 65 Sur 0 -- -- 78
2020-01-16 16:00:00 4.3 24 Sur 63 Sur 0 -- -- 78
2020-01-16 15:00:00 4.4 26 Sur 57 Sur 0 -- -- 80
2020-01-16 14:00:00 4.5 31 Sur 73 Sudoeste 0 -- -- 82
2020-01-16 13:00:00 4.5 35 Sur 69 Sur 0.5 -- -- 85
2020-01-16 12:00:00 4.5 32 Sur 60 Sudeste 2.7 -- -- 87
2020-01-16 11:00:00 4.7 29 Sur 68 Sur 2.5 -- -- 86
2020-01-16 10:00:00 4.7 33 Sur 71 Sur 0 -- -- 83
2020-01-16 09:00:00 4.6 36 Sur 67 Sur 0.3 -- -- 91
2020-01-16 08:00:00 4.5 28 Sur 64 Sur 0.2 -- -- 91
2020-01-16 07:00:00 4.6 32 Sur 66 Sur 0.5 -- -- 90
2020-01-16 06:00:00 4.7 26 Sur 65 Sur 0.2 -- -- 90
2020-01-16 05:00:00 4.6 31 Sur 60 Sur 0 -- -- 86
2020-01-16 04:00:00 4.7 29 Sur 53 Sudeste 0 -- -- 83
2020-01-16 03:00:00 4.8 32 Sur 94 Sudeste 0.9 -- -- 84
2020-01-16 02:00:00 4.5 31 Sur 58 Sur 0.7 -- -- 89
2020-01-16 01:00:00 4.4 26 Sur 80 Sudeste 0.8 -- -- 88
2020-01-16 00:00:00 4.5 26 Sudeste 54 Sudeste 0.2 -- -- 86
2020-01-15 23:00:00 4.1 21 Sur 48 Sur 0 -- -- 83
2020-01-15 22:00:00 3.4 34 Sur 60 Sur 0 -- -- 77
2020-01-15 21:00:00 3.1 36 Sur 63 Sur 0 -- -- 74
2020-01-15 20:00:00 3.5 35 Sur 62 Sur 0 -- -- 74
2020-01-15 19:00:00 3.8 32 Sur 50 Sur 0 -- -- 75
2020-01-15 18:00:00 3.8 26 Sur 42 Sur 0 -- -- 74
2020-01-15 17:00:00 4.2 23 Sur 46 Sur 0 -- -- 70
2020-01-15 16:00:00 4.4 22 Sur 44 Sudoeste 0 -- -- 68
2020-01-15 15:00:00 4.7 21 Sur 46 Sur 0 -- -- 68
2020-01-15 14:00:00 4 30 Sur 51 Sur 0 -- -- 72
2020-01-15 13:00:00 3.6 13 Sur 42 Sur 0 -- -- 84
2020-01-15 12:00:00 3.3 13 Sur 30 Este 0 -- -- 87
2020-01-15 11:00:00 3.1 16 Sur 30 Sur 0.4 -- -- 86
2020-01-15 10:00:00 2.9 16 Sur 43 Sur 3.5 -- -- 87
2020-01-15 09:00:00 3.1 27 Sur 49 Sur 2.2 -- -- 88
2020-01-15 08:00:00 3.1 29 Sur 59 Sur 1.7 -- -- 89
2020-01-15 07:00:00 3.1 22 Sur 64 Sur 0.8 -- -- 89
2020-01-15 06:00:00 2.9 23 Sur 53 Sur 1 -- -- 90
2020-01-15 05:00:00 2.7 31 Sur 70 Sur 1.1 -- -- 91
2020-01-15 04:00:00 2.3 29 Sur 69 Sur 0.1 -- -- 91
2020-01-15 03:00:00 2.1 37 Sur 63 Sur 0.2 -- -- 91
2020-01-15 02:00:00 1.8 36 Sur 84 Sur 0.1 -- -- 91
2020-01-15 01:00:00 1.7 42 Sur 82 Sur 0 -- -- 91
2020-01-15 00:00:00 1.6 34 Sur 68 Sur 0.1 -- -- 91
2020-01-14 23:00:00 1.3 36 Sur 64 Sur 0 -- -- 92
2020-01-14 22:00:00 1.2 31 Sur 67 Sur 0.1 -- -- 92
2020-01-14 21:00:00 1.3 33 Sur 58 Sur 0 -- -- 92
2020-01-14 20:00:00 1.5 35 Sur 63 Sur 0 -- -- 92
2020-01-14 19:00:00 1.3 36 Sur 66 Sur 0 -- -- 92
2020-01-14 18:00:00 1.2 36 Sur 67 Sur 0 -- -- 92
2020-01-14 17:00:00 0.7 31 Sur 51 Sur 0 -- -- 92
2020-01-14 16:00:00 0.3 27 Sur 49 Sur 0 -- -- 92
2020-01-14 15:00:00 -0.1 24 Sur 53 Sur 0 -- -- 92
2020-01-14 14:00:00 -0.2 33 Sur 57 Sur 0 -- -- 92
2020-01-14 13:00:00 -0.6 35 Sur 62 Sur 0 -- -- 92
2020-01-14 12:00:00 -0.7 33 Sur 59 Sur 0 -- -- 92
2020-01-14 11:00:00 -0.6 25 Sudeste 59 Sudeste 0 -- -- 92
2020-01-14 10:00:00 -0.7 27 Sur 64 Sur 0 -- -- 92
2020-01-14 09:00:00 -0.6 44 Sur 68 Sur 0 -- -- 91
2020-01-14 08:00:00 -0.4 32 Sur 66 Sudeste 0 -- -- 91
2020-01-14 07:00:00 0.9 35 Sur 69 Sudeste 0 -- -- 87
2020-01-14 06:00:00 0.4 39 Sur 61 Sur 0 -- -- 86
2020-01-14 05:00:00 1.8 31 Sur 67 Sur 0 -- -- 78
2020-01-14 04:00:00 1.5 33 Sur 51 Sur 0 -- -- 78
2020-01-14 03:00:00 3 29 Sur 62 Sudoeste 0 -- -- 70
2020-01-14 02:00:00 3.1 27 Sur 58 Sudoeste 0 -- -- 67
2020-01-14 01:00:00 3.1 37 Sudoeste 82 Sudoeste 0 -- -- 66
2020-01-14 00:00:00 2.4 45 Sudoeste 72 Sur 0 -- -- 72
2020-01-13 23:00:00 1.7 36 Sur 58 Sur 0 -- -- 76
2020-01-13 22:00:00 0.9 35 Sur 55 Sur 0 -- -- 72
2020-01-13 21:00:00 0.6 28 Sur 49 Sur 0 -- -- 64
2020-01-13 20:00:00 1 24 Sur 48 Sur 0 -- -- 49
2020-01-13 19:00:00 2.1 32 Sur 55 Sur 0 -- -- 42
2020-01-13 18:00:00 4.6 26 Sur 56 Sur 0 -- -- 41
2020-01-13 17:00:00 5.1 24 Sur 44 Sur 0 -- -- 35
2020-01-13 16:00:00 5 23 Sur 44 Sur 0 -- -- 33
2020-01-13 15:00:00 4.3 28 Sur 52 Sur 0 -- -- 35
2020-01-13 14:00:00 4.5 30 Sur 52 Sur 0 -- -- 37
2020-01-13 13:00:00 3.9 28 Sur 43 Sur 0 -- -- 39
2020-01-13 12:00:00 4 30 Sur 66 Sur 0 -- -- 40
2020-01-13 11:00:00 1.4 17 Sur 35 Sur 0 -- -- 43
2020-01-13 10:00:00 0.9 23 Sur 36 Sur 0 -- -- 45
2020-01-13 09:00:00 0.8 23 Sur 36 Sur 0 -- -- 45
2020-01-13 08:00:00 1.2 23 Sur 35 Sur 0 -- -- 44
2020-01-13 07:00:00 1.6 10 Sur 18 Sur 0 -- -- 45
2020-01-13 06:00:00 0.7 12 Sur 16 Sur 0 -- -- 45
2020-01-13 05:00:00 0.8 11 Sur 20 Sur 0 -- -- 43
2020-01-13 04:00:00 2.1 15 Sur 21 Sur 0 -- -- 40
2020-01-13 03:00:00 2.8 13 Sur 18 Sur 0 -- -- 41
2020-01-13 02:00:00 3.3 12 Sudoeste 17 Sudoeste 0 -- -- 39
2020-01-13 01:00:00 3.8 12 Sur 21 Sur 0 -- -- 36
2020-01-13 00:00:00 2.2 15 Sur 21 Sur 0 -- -- 41
2020-01-12 23:00:00 2.7 15 Sur 22 Sur 0 -- -- 42
2020-01-12 22:00:00 2.7 16 Sur 25 Sur 0 -- -- 44
2020-01-12 21:00:00 3.6 18 Sur 23 Sur 0 -- -- 40
2020-01-12 20:00:00 4.1 14 Sur 20 Sur 0 -- -- 42
2020-01-12 19:00:00 3.2 10 Sur 14 Sur 0 -- -- 42
2020-01-12 18:00:00 2.6 6 Sudoeste 13 Sudoeste 0 -- -- 43
2020-01-12 17:00:00 2 7 Sudoeste 13 Sudoeste 0 -- -- 44
2020-01-12 16:00:00 3.2 4 Sudoeste 7 Sudoeste 0 -- -- 37
2020-01-12 15:00:00 8.1 0 Calma 6 Oeste 0 -- -- 26
2020-01-12 14:00:00 8.3 0 Calma 6 Nordeste 0 -- -- 23
2020-01-12 13:00:00 7.8 0 Calma 8 Oeste 0 -- -- 25
2020-01-12 12:00:00 5.8 2 Sur 6 Oeste 0 -- -- 30
2020-01-12 11:00:00 2.5 5 Sur 9 Sur 0 -- -- 35
2020-01-12 10:00:00 0.4 6 Sur 10 Sudoeste 0 -- -- 37
2020-01-12 09:00:00 1.8 4 Oeste 10 Oeste 0 -- -- 29
2020-01-12 08:00:00 1.5 2 Sudoeste 7 Sudoeste 0 -- -- 29
2020-01-12 07:00:00 3 0 Calma 6 Noroeste 0 -- -- 28
2020-01-12 06:00:00 3.1 0 Calma 14 Sudoeste 0 -- -- 27
2020-01-12 05:00:00 2.2 10 Sudoeste 13 Sudoeste 0 -- -- 29
2020-01-12 04:00:00 2.1 8 Sudoeste 13 Sudoeste 0 -- -- 31
2020-01-12 03:00:00 2.7 3 Sur 12 Sur 0 -- -- 31
2020-01-12 02:00:00 3 8 Sur 12 Sudoeste 0 -- -- 30
2020-01-12 01:00:00 2.3 6 Sudoeste 12 Sudoeste 0 -- -- 31
2020-01-12 00:00:00 4 9 Sudoeste 17 Sudoeste 0 -- -- 28
2020-01-11 23:00:00 3.4 12 Sudoeste 16 Sudoeste 0 -- -- 29
2020-01-11 22:00:00 2.6 5 Sudoeste 12 Sudoeste 0 -- -- 30
2020-01-11 21:00:00 2.9 10 Sudoeste 14 Sur 0 -- -- 28
2020-01-11 20:00:00 4.1 9 Sur 13 Sudoeste 0 -- -- 27
2020-01-11 19:00:00 3.6 9 Sudoeste 11 Sudoeste 0 -- -- 31
2020-01-11 18:00:00 3.3 4 Sudoeste 12 Sudoeste 0 -- -- 31
2020-01-11 17:00:00 4.4 3 Sudoeste 9 Sudoeste 0 -- -- 31
2020-01-11 16:00:00 6.4 7 Sudoeste 10 Sudoeste 0 -- -- 31
2020-01-11 15:00:00 6.6 3 Sudoeste 6 Sudoeste 0 -- -- 35
2020-01-11 14:00:00 8.6 0 Calma 7 Sur 0 -- -- 28
2020-01-11 13:00:00 6.6 7 Sur 10 Sur 0 -- -- 31
2020-01-11 12:00:00 4.2 5 Sur 10 Sur 0 -- -- 35
2020-01-11 11:00:00 1.8 3 Sur 9 Sur 0 -- -- 36
2020-01-11 10:00:00 0.1 5 Sudoeste 11 Sur 0 -- -- 38
2020-01-11 09:00:00 -0.2 7 Sur 13 Sur 0 -- -- 36
2020-01-11 08:00:00 -0.9 11 Sur 17 Sur 0 -- -- 41
2020-01-11 07:00:00 -1.1 11 Sur 17 Sur 0 -- -- 42
2020-01-11 06:00:00 -1.5 9 Sur 17 Sur 0 -- -- 44
2020-01-11 05:00:00 -0.9 13 Sur 18 Sur 0 -- -- 44
2020-01-11 04:00:00 -0.7 13 Sur 18 Sur 0 -- -- 47
2020-01-11 03:00:00 -1.6 8 Sur 16 Sur 0 -- -- 54
2020-01-11 02:00:00 -1.9 10 Sur 14 Sur 0 -- -- 62
2020-01-11 01:00:00 -0.6 11 Sur 17 Sur 0 -- -- 63
2020-01-11 00:00:00 -0.6 13 Sur 18 Sur 0 -- -- 73
2020-01-10 23:00:00 -1.2 14 Sur 18 Sur 0 -- -- 81
2020-01-10 22:00:00 -1.9 8 Sur 20 Sur 0 -- -- 90
2020-01-10 21:00:00 -1.2 9 Sudeste 17 Sudeste 0 -- -- 92
2020-01-10 20:00:00 -1.7 7 Sur 10 Sur 0 -- -- 92
2020-01-10 19:00:00 -1.3 0 Calma 6 Sudoeste 0 -- -- 92
2020-01-10 18:00:00 -0.2 0 Calma 11 Noroeste 0.2 -- -- 92
2020-01-10 17:00:00 0 7 Noroeste 19 Noroeste 0 -- -- 92
2020-01-10 16:00:00 0 10 Noroeste 22 Noroeste 0 -- -- 92
2020-01-10 15:00:00 0 10 Noroeste 23 Noroeste 0.5 -- -- 92
2020-01-10 14:00:00 -0.2 10 Noroeste 27 Oeste 0.1 -- -- 92
2020-01-10 13:00:00 -0.2 12 Noroeste 25 Noroeste 0.9 -- -- 92
2020-01-10 12:00:00 -0.6 13 Noroeste 28 Noroeste 0.1 -- -- 92
2020-01-10 11:00:00 -0.9 11 Noroeste 32 Noroeste 0.6 -- -- 92
2020-01-10 10:00:00 -1.2 18 Noroeste 34 Noroeste 0.2 -- -- 92
2020-01-10 09:00:00 -1.3 21 Noroeste 41 Noroeste 0.2 -- -- 92
2020-01-10 08:00:00 -1.5 24 Noroeste 44 Noroeste 0 -- -- 92
2020-01-10 07:00:00 -1.5 22 Noroeste 50 Noroeste 0 -- -- 92
2020-01-10 06:00:00 -1.6 19 Noroeste 45 Noroeste 0 -- -- 90
2020-01-10 05:00:00 -1.5 18 Noroeste 36 Noroeste 0 -- -- 84
2020-01-10 04:00:00 -1.4 18 Noroeste 40 Noroeste 0 -- -- 82
2020-01-10 03:00:00 -1.2 17 Noroeste 42 Noroeste 0 -- -- 85
2020-01-10 02:00:00 -0.6 17 Noroeste 30 Noroeste 0 -- -- 88
2020-01-10 01:00:00 -0.3 11 Noroeste 33 Noroeste 0 -- -- 83
2020-01-10 00:00:00 -0.1 13 Noroeste 31 Noroeste 0 -- -- 82
2020-01-09 23:00:00 -0.1 9 Noroeste 22 Noroeste 0 -- -- 78
2020-01-09 22:00:00 -0.1 4 Noroeste 23 Noroeste 0 -- -- 78
2020-01-09 21:00:00 0.9 7 Norte 14 Noroeste 0 -- -- 75
2020-01-09 20:00:00 1.5 4 Este 21 Oeste 0 -- -- 68
2020-01-09 19:00:00 2 3 Sudoeste 23 Noroeste 0 -- -- 76
2020-01-09 18:00:00 3.2 5 Noroeste 27 Noroeste 0 -- -- 70
2020-01-09 17:00:00 4.8 3 Noroeste 21 Sur 0.2 -- -- 69
2020-01-09 16:00:00 6.3 8 Sudoeste 32 Oeste 0.1 -- -- 66
2020-01-09 15:00:00 7.3 10 Sudoeste 37 Sur 0 -- -- 65
2020-01-09 14:00:00 7.6 18 Sur 44 Sudoeste 0 -- -- 68
2020-01-09 13:00:00 6.6 17 Sur 42 Sudeste 0 -- -- 79
2020-01-09 12:00:00 5.3 17 Sudeste 43 Este 0 -- -- 84
2020-01-09 11:00:00 6.2 12 Sudeste 33 Sudoeste 0 -- -- 76
2020-01-09 10:00:00 4.8 14 Sur 30 Sur 0 -- -- 81
2020-01-09 09:00:00 5 5 Sur 42 Sur 0 -- -- 78
2020-01-09 08:00:00 5.2 20 Sur 30 Sur 0 -- -- 79
2020-01-09 07:00:00 5.7 12 Sur 21 Sur 0 -- -- 76
2020-01-09 06:00:00 5.7 9 Sur 18 Sudoeste 0 -- -- 75
2020-01-09 05:00:00 6 7 Sur 19 Sur 0 -- -- 75
2020-01-09 04:00:00 5.2 9 Sur 23 Sur 0 -- -- 76
2020-01-09 03:00:00 5.1 7 Sur 13 Sudoeste 0 -- -- 71
2020-01-09 02:00:00 4.8 9 Sudoeste 17 Sur 0 -- -- 61
2020-01-09 01:00:00 6.1 9 Sur 19 Sur 0 -- -- 52
2020-01-09 00:00:00 5.9 10 Sur 21 Sur 0 -- -- 45
2020-01-08 23:00:00 6.6 13 Sur 21 Sur 0 -- -- 44
2020-01-08 22:00:00 7 8 Sur 16 Sudeste 0 -- -- 47
2020-01-08 21:00:00 6.6 10 Sur 19 Sur 0 -- -- 44
2020-01-08 20:00:00 7 15 Sur 21 Sur 0 -- -- 43
2020-01-08 19:00:00 7.2 14 Sur 21 Sur 0 -- -- 43
2020-01-08 18:00:00 7.2 12 Sur 15 Sur 0 -- -- 44
2020-01-08 17:00:00 7.2 0 Calma 17 Sur 0 -- -- 44
2020-01-08 16:00:00 10.4 10 Sur 18 Sur 0 -- -- 40
2020-01-08 15:00:00 11.1 10 Sur 17 Sur 0 -- -- 40
2020-01-08 14:00:00 11.5 9 Sur 20 Sur 0 -- -- 40
2020-01-08 13:00:00 10.9 8 Sur 18 Sur 0 -- -- 43
2020-01-08 12:00:00 10.3 11 Sudeste 21 Sur 0 -- -- 44
2020-01-08 11:00:00 9.4 9 Sur 18 Sur 0 -- -- 49
2020-01-08 10:00:00 7.6 12 Sur 17 Sur 0 -- -- 52
2020-01-08 09:00:00 5 7 Sur 14 Sur 0 -- -- 49
2020-01-08 08:00:00 4 8 Sudoeste 10 Sur 0 -- -- 43
2020-01-08 07:00:00 5.5 0 Calma 16 Sudoeste 0 -- -- 41
2020-01-08 06:00:00 7.2 12 Sudoeste 16 Sudoeste 0 -- -- 54
2020-01-08 05:00:00 4.9 10 Sudoeste 13 Sur 0 -- -- 40
2020-01-08 04:00:00 4.7 8 Sur 10 Sur 0 -- -- 41
2020-01-08 03:00:00 4.8 8 Sudoeste 12 Sudoeste 0 -- -- 44
2020-01-08 02:00:00 6.3 8 Sudoeste 14 Sudoeste 0 -- -- 51
2020-01-08 01:00:00 7 11 Sur 15 Sudoeste 0 -- -- 58
2020-01-08 00:00:00 5.3 11 Sudoeste 14 Sudoeste 0 -- -- 34
2020-01-07 23:00:00 5.2 8 Sudoeste 13 Sur 0 -- -- 32
2020-01-07 22:00:00 5.5 10 Sudoeste 14 Sur 0 -- -- 33
2020-01-07 21:00:00 4.6 8 Sur 13 Sur 0 -- -- 33
2020-01-07 20:00:00 5.2 9 Sudoeste 14 Sudoeste 0 -- -- 31
2020-01-07 19:00:00 6.8 11 Sudoeste 14 Sudoeste 0 -- -- 30
2020-01-07 18:00:00 7 12 Sudoeste 15 Sudoeste 0 -- -- 29
2020-01-07 17:00:00 6.8 11 Sudoeste 14 Sudoeste 0 -- -- 29
2020-01-07 16:00:00 8.1 4 Sudoeste 9 Sudoeste 0 -- -- 24
2020-01-07 15:00:00 12.8 2 Sudoeste 6 Oeste 0 -- -- 18
2020-01-07 14:00:00 11.9 4 Oeste 7 Oeste 0 -- -- 18
2020-01-07 13:00:00 11.6 0 Calma 7 Oeste 0 -- -- 20
2020-01-07 12:00:00 10.7 0 Calma 6 Sudoeste 0 -- -- 22
2020-01-07 11:00:00 7.6 5 Sur 12 Sur 0 -- -- 27
2020-01-07 10:00:00 6.2 11 Sudoeste 17 Sudoeste 0 -- -- 26
2020-01-07 09:00:00 6.5 13 Sur 21 Sur 0 -- -- 25
2020-01-07 08:00:00 6.6 12 Sudoeste 22 Sur 0 -- -- 24
2020-01-07 07:00:00 6 9 Sur 24 Sur 0 -- -- 25
2020-01-07 06:00:00 6 19 Sur 26 Sur 0 -- -- 26
2020-01-07 05:00:00 6 15 Sur 27 Sur 0 -- -- 26
2020-01-07 04:00:00 6.2 20 Sur 31 Sur 0 -- -- 26
2020-01-07 03:00:00 6.4 26 Sur 31 Sur 0 -- -- 26
2020-01-07 02:00:00 5.8 22 Sur 26 Sur 0 -- -- 27
2020-01-07 01:00:00 4.8 13 Sudoeste 16 Sudoeste 0 -- -- 30
2020-01-07 00:00:00 4.4 11 Sudoeste 17 Sudoeste 0 -- -- 31
2020-01-06 23:00:00 3.5 11 Sur 15 Sudoeste 0 -- -- 35
2020-01-06 22:00:00 2.8 7 Sudoeste 14 Sudoeste 0 -- -- 39
2020-01-06 21:00:00 2.3 8 Sur 13 Sudoeste 0 -- -- 44
2020-01-06 20:00:00 1.1 3 Sudoeste 6 Sudoeste 0 -- -- 45
2020-01-06 19:00:00 5 2 Oeste 11 Noroeste 0 -- -- 34
2020-01-06 18:00:00 4.3 0 Calma 9 Oeste 0 -- -- 39
2020-01-06 17:00:00 6 3 Noroeste 12 Sudoeste 0 -- -- 37
2020-01-06 16:00:00 10.2 3 Oeste 14 Sur 0 -- -- 30
2020-01-06 15:00:00 11 6 Sur 10 Sur 0 -- -- 28
2020-01-06 14:00:00 10.7 0 Calma 7 Sur 0 -- -- 29
2020-01-06 13:00:00 12 0 Calma 11 Sur 0 -- -- 26
2020-01-06 12:00:00 11.9 7 Sur 16 Sur 0 -- -- 26
2020-01-06 11:00:00 -- 12 Sur 22 Sudeste 0 -- -- --
2020-01-06 10:00:00 -- 11 Sur 18 Sur 0 -- -- --